TimeEST,TemperatureF,Dew PointF,Humidity,Sea Level PressureIn,VisibilityMPH,Wind Direction,Wind SpeedMPH,Gust SpeedMPH,PrecipitationIn,Events,Conditions,WindDirDegrees,DateUTC
12:13 AM,32.0,30.2,93,30.15,1.8,Calm,Calm,-,N/A,,Mist,0,2012-11-23 05:13:00
12:21 AM,30.2,30.2,100,30.14,2.0,Calm,Calm,-,N/A,,Overcast,0,2012-11-23 05:21:00
12:29 AM,32.0,30.2,93,30.14,3.0,Calm,Calm,-,N/A,,Overcast,0,2012-11-23 05:29:00
12:43 AM,32.0,30.2,93,30.14,1.8,Calm,Calm,-,N/A,,Overcast,0,2012-11-23 05:43:00
12:51 AM,33.8,30.2,87,30.13,1.0,Calm,Calm,-,N/A,,Mist,0,2012-11-23 05:51:00
12:54 AM,33.1,30.9,92,30.13,0.5,Calm,Calm,-,N/A,Fog,Fog,0,2012-11-23 05:54:00
1:54 AM,30.9,30.0,96,30.13,0.5,Calm,Calm,-,N/A,Fog,Light Freezing Fog,0,2012-11-23 06:54:00
2:52 AM,30.2,28.4,93,30.11,1.2,Calm,Calm,-,N/A,,Overcast,0,2012-11-23 07:52:00
2:54 AM,30.0,28.9,96,30.11,1.5,Calm,Calm,-,N/A,,Overcast,0,2012-11-23 07:54:00
2:57 AM,30.2,28.4,93,30.11,3.0,Calm,Calm,-,N/A,,Overcast,0,2012-11-23 07:57:00
3:03 AM,30.2,28.4,93,30.11,1.8,Calm,Calm,-,N/A,,Overcast,0,2012-11-23 08:03:00
3:08 AM,30.2,28.4,93,30.10,0.8,Calm,Calm,-,N/A,,Mist,0,2012-11-23 08:08:00
3:54 AM,30.0,28.9,96,30.10,0.2,Calm,Calm,-,N/A,Fog,Light Freezing Fog,0,2012-11-23 08:54:00
4:37 AM,30.2,28.4,93,30.10,0.2,Calm,Calm,-,N/A,Fog,Light Freezing Fog,0,2012-11-23 09:37:00
4:54 AM,28.9,28.9,100,30.10,0.2,Calm,Calm,-,N/A,Fog,Light Freezing Fog,0,2012-11-23 09:54:00
5:54 AM,28.9,27.0,92,30.08,0.5,Calm,Calm,-,N/A,Fog,Light Freezing Fog,0,2012-11-23 10:54:00
6:54 AM,28.0,27.0,96,30.07,0.2,Calm,Calm,-,N/A,Fog,Light Freezing Fog,0,2012-11-23 11:54:00
7:17 AM,28.4,28.4,100,30.06,0.2,Calm,Calm,-,N/A,Fog,Light Freezing Fog,0,2012-11-23 12:17:00
7:54 AM,30.0,28.9,96,30.06,0.2,Calm,Calm,-,N/A,Fog,Light Freezing Fog,0,2012-11-23 12:54:00
8:06 AM,30.2,30.2,100,30.05,0.2,Calm,Calm,-,N/A,Fog,Light Freezing Fog,0,2012-11-23 13:06:00
8:54 AM,37.0,37.0,100,30.04,0.2,Calm,Calm,-,N/A,Fog,Fog,0,2012-11-23 13:54:00
9:54 AM,41.0,41.0,100,30.03,1.0,Calm,Calm,-,N/A,,Mist,0,2012-11-23 14:54:00
10:04 AM,42.8,42.8,100,30.01,1.8,Calm,Calm,-,N/A,,Mostly Cloudy,0,2012-11-23 15:04:00
10:08 AM,44.6,42.8,93,30.01,3.0,Calm,Calm,-,N/A,,Mostly Cloudy,0,2012-11-23 15:08:00
10:19 AM,44.6,42.8,93,30.01,5.0,Calm,Calm,-,N/A,,Scattered Clouds,0,2012-11-23 15:19:00
10:54 AM,51.1,43.0,74,29.98,10.0,Variable,4.6,-,N/A,,Clear,0,2012-11-23 15:54:00
11:54 AM,55.0,39.9,57,29.93,10.0,SW,5.8,-,N/A,,Clear,230,2012-11-23 16:54:00
12:54 PM,55.9,37.9,51,29.90,10.0,SW,6.9,-,N/A,,Clear,230,2012-11-23 17:54:00
1:54 PM,57.9,37.0,46,29.86,10.0,South,5.8,-,N/A,,Clear,180,2012-11-23 18:54:00
2:54 PM,57.9,36.0,44,29.82,10.0,South,4.6,-,N/A,,Clear,180,2012-11-23 19:54:00
3:54 PM,55.0,35.1,47,29.79,10.0,South,3.5,-,N/A,,Clear,180,2012-11-23 20:54:00
4:54 PM,53.1,36.0,52,29.79,10.0,Calm,Calm,-,N/A,,Clear,0,2012-11-23 21:54:00
5:54 PM,50.0,37.0,61,29.78,10.0,SSE,4.6,-,N/A,,Partly Cloudy,160,2012-11-23 22:54:00
6:54 PM,50.0,39.9,68,29.79,10.0,Calm,Calm,-,N/A,,Overcast,0,2012-11-23 23:54:00
7:54 PM,48.9,39.9,71,29.77,10.0,Calm,Calm,-,N/A,,Overcast,0,2012-11-24 00:54:00
8:54 PM,46.9,42.1,83,29.76,9.0,Calm,Calm,-,0.00,Rain,Light Rain,0,2012-11-24 01:54:00
9:54 PM,46.0,43.0,89,29.73,9.0,Calm,Calm,-,0.02,,Overcast,0,2012-11-24 02:54:00
10:54 PM,46.0,43.0,89,29.73,7.0,SSW,3.5,-,N/A,,Overcast,200,2012-11-24 03:54:00
11:54 PM,48.9,42.1,77,29.73,10.0,West,8.1,-,N/A,,Overcast,270,2012-11-24 04:54:00